{"data":{"norad_id":65386,"intl_designator":"2025-191H","name":"STARLINK-35066","alt_names":[],"object_type":"PAYLOAD","status":"ACTIVE","operator":null,"country":"US","launch_date":"2025-08-30","launch_site_code":"AFWTR","launch_vehicle":null,"mission":null,"orbit_class":"UNKNOWN","rcs_meters":null,"size_class":null,"mass_kg":null,"dimensions":null,"purposes":["comms"],"wikipedia_slug":null,"has_3d_model":false,"image_url":null,"decayed_at":null,"tle_current":{"epoch":"2026-09-20T13:58:53.459616Z","epoch_age_seconds":107785,"freshness":"FRESH","line1":"1 65386U 25191H   26263.58256319  .00011960  00000+0  37211-3 0  9997","line2":"2 65386  97.2846 129.6482 0002235  86.2439 273.9059 15.33451741 59656","mean_motion":15.33451741,"eccentricity":0.0002235,"inclination_deg":97.2846,"raan_deg":129.6482,"arg_perigee_deg":86.2439,"mean_anomaly_deg":273.9059,"bstar":0.00037211,"rev_number":5965,"period_min":93.905791848457,"perigee_km":463.99356004191,"apogee_km":467.05267611469,"semimajor_km":6843.6601180783,"source":"CELESTRAK","updated_at":"2026-09-21T09:00:35.598409Z"}}}